TimeEST,TemperatureF,Dew PointF,Humidity,Sea Level PressureIn,VisibilityMPH,Wind Direction,Wind SpeedMPH,Gust SpeedMPH,PrecipitationIn,Events,Conditions,WindDirDegrees,DateUTC
12:15 AM,48.4,48.2,99,30.06,1.8,Calm,Calm,-,N/A,,Overcast,0,2012-12-09 05:15:00
12:35 AM,48.9,48.9,100,30.06,1.2,Calm,Calm,-,N/A,,Overcast,0,2012-12-09 05:35:00
12:55 AM,50.0,50.0,100,30.06,5.0,Calm,Calm,-,N/A,,Overcast,0,2012-12-09 05:55:00
1:15 AM,50.4,50.4,100,30.06,5.0,Calm,Calm,-,N/A,,Overcast,0,2012-12-09 06:15:00
1:35 AM,50.4,50.2,99,30.07,7.0,Calm,Calm,-,N/A,,Overcast,0,2012-12-09 06:35:00
1:55 AM,50.5,50.2,99,30.08,5.0,Calm,Calm,-,N/A,,Overcast,0,2012-12-09 06:55:00
2:15 AM,48.7,48.6,99,30.08,2.5,Calm,Calm,-,N/A,,Overcast,0,2012-12-09 07:15:00
2:35 AM,48.7,48.7,100,30.09,1.0,Calm,Calm,-,N/A,,Overcast,0,2012-12-09 07:35:00
2:55 AM,49.3,49.3,100,30.09,4.0,Calm,Calm,-,N/A,,Overcast,0,2012-12-09 07:55:00
3:15 AM,49.3,49.3,100,30.10,2.5,Calm,Calm,-,N/A,,Overcast,0,2012-12-09 08:15:00
3:35 AM,49.1,49.1,100,30.10,0.8,Calm,Calm,-,N/A,,Overcast,0,2012-12-09 08:35:00
3:55 AM,47.3,47.3,100,30.09,1.0,Calm,Calm,-,N/A,,Overcast,0,2012-12-09 08:55:00
4:15 AM,47.3,47.3,100,30.10,0.2,Calm,Calm,-,N/A,Fog,Fog,0,2012-12-09 09:15:00
4:35 AM,47.1,47.1,100,30.10,0.2,Calm,Calm,-,N/A,Fog,Fog,0,2012-12-09 09:35:00
4:55 AM,46.8,46.8,100,30.10,0.2,NNE,3.5,-,N/A,Fog,Fog,30,2012-12-09 09:55:00
5:15 AM,49.5,49.5,100,30.11,0.5,North,3.5,-,N/A,Fog,Fog,10,2012-12-09 10:15:00
5:35 AM,50.0,50.0,100,30.13,0.2,North,5.8,-,N/A,Fog,Fog,350,2012-12-09 10:35:00
5:55 AM,50.2,50.2,100,30.12,0.2,Calm,Calm,-,N/A,Fog,Fog,0,2012-12-09 10:55:00
6:15 AM,50.2,50.2,100,30.13,0.8,NNE,4.6,-,N/A,,Overcast,30,2012-12-09 11:15:00
6:35 AM,50.5,50.5,100,30.16,1.5,Calm,Calm,-,N/A,,Overcast,0,2012-12-09 11:35:00
6:55 AM,50.5,50.5,100,30.17,1.2,Calm,Calm,-,N/A,,Overcast,0,2012-12-09 11:55:00
7:15 AM,50.5,50.5,100,30.18,1.2,North,4.6,-,N/A,,Overcast,10,2012-12-09 12:15:00
7:35 AM,51.1,51.1,100,30.17,1.2,Calm,Calm,-,N/A,,Overcast,0,2012-12-09 12:35:00
7:55 AM,51.4,51.4,100,30.18,1.5,NE,4.6,-,N/A,,Overcast,50,2012-12-09 12:55:00
8:15 AM,52.3,52.3,100,30.18,2.0,NE,5.8,-,N/A,,Overcast,40,2012-12-09 13:15:00
8:35 AM,52.3,52.2,99,30.17,2.0,NE,6.9,-,N/A,,Overcast,40,2012-12-09 13:35:00
8:55 AM,52.3,51.8,98,30.19,2.5,NNE,4.6,-,N/A,,Overcast,20,2012-12-09 13:55:00
9:15 AM,53.2,51.8,95,30.19,4.0,NNE,6.9,-,N/A,,Overcast,30,2012-12-09 14:15:00
9:35 AM,53.4,51.8,94,30.20,4.0,NE,8.1,-,N/A,,Overcast,40,2012-12-09 14:35:00
9:55 AM,54.0,51.8,92,30.20,5.0,NE,13.8,-,N/A,,Overcast,50,2012-12-09 14:55:00
10:15 AM,54.1,51.3,90,30.21,5.0,NE,5.8,-,N/A,,Overcast,50,2012-12-09 15:15:00
10:35 AM,54.3,51.1,89,30.20,5.0,NE,8.1,-,N/A,,Overcast,40,2012-12-09 15:35:00
10:55 AM,54.1,50.7,88,30.18,5.0,ENE,10.4,-,N/A,,Overcast,60,2012-12-09 15:55:00
11:15 AM,54.1,50.7,88,30.18,5.0,ENE,5.8,-,N/A,,Overcast,60,2012-12-09 16:15:00
11:35 AM,54.1,50.9,89,30.17,5.0,ENE,6.9,-,N/A,,Overcast,60,2012-12-09 16:35:00
11:55 AM,54.0,51.1,90,30.18,4.0,ENE,5.8,-,N/A,,Overcast,60,2012-12-09 16:55:00
12:15 PM,53.2,51.4,94,30.17,1.8,NE,5.8,-,N/A,,Overcast,50,2012-12-09 17:15:00
12:35 PM,52.9,52.0,97,30.16,1.2,ENE,3.5,-,N/A,,Overcast,70,2012-12-09 17:35:00
12:55 PM,52.5,51.8,97,30.16,1.0,ENE,6.9,-,N/A,,Overcast,70,2012-12-09 17:55:00
1:15 PM,52.3,51.8,98,30.15,1.0,ENE,5.8,-,N/A,,Overcast,60,2012-12-09 18:15:00
1:35 PM,52.3,51.8,98,30.15,1.0,NE,5.8,-,N/A,,Overcast,50,2012-12-09 18:35:00
1:55 PM,52.3,51.8,98,30.15,1.2,ENE,6.9,-,N/A,,Overcast,60,2012-12-09 18:55:00
2:15 PM,52.3,51.8,98,30.14,1.2,ENE,3.5,-,N/A,,Overcast,70,2012-12-09 19:15:00
2:35 PM,52.2,51.8,99,30.14,1.2,ENE,5.8,-,N/A,,Overcast,60,2012-12-09 19:35:00
2:55 PM,51.6,51.1,98,30.14,1.2,NE,5.8,-,N/A,,Overcast,50,2012-12-09 19:55:00
3:35 PM,51.3,50.7,98,30.15,1.2,Calm,Calm,-,N/A,,Overcast,0,2012-12-09 20:35:00
3:55 PM,51.1,50.5,98,30.14,1.0,NE,6.9,-,N/A,,Overcast,50,2012-12-09 20:55:00
4:15 PM,50.9,50.2,97,30.14,1.2,NE,6.9,-,N/A,,Overcast,50,2012-12-09 21:15:00
4:35 PM,50.5,50.2,99,30.14,1.0,NE,4.6,-,N/A,,Overcast,50,2012-12-09 21:35:00
4:55 PM,50.5,50.2,99,30.13,1.5,ENE,4.6,-,N/A,,Overcast,70,2012-12-09 21:55:00
5:15 PM,50.5,50.4,99,30.14,1.5,East,4.6,-,N/A,,Overcast,90,2012-12-09 22:15:00
5:35 PM,50.5,50.4,99,30.13,1.2,Calm,Calm,-,N/A,,Overcast,0,2012-12-09 22:35:00
5:55 PM,50.4,50.2,99,30.14,1.5,Calm,Calm,-,0.01,Rain,Light Rain,0,2012-12-09 22:55:00
6:15 PM,50.2,50.0,99,30.13,2.0,ENE,3.5,-,0.01,Rain,Light Rain,60,2012-12-09 23:15:00
6:35 PM,50.4,50.2,99,30.13,2.5,Calm,Calm,-,0.04,Rain,Light Rain,0,2012-12-09 23:35:00
6:55 PM,50.4,50.2,99,30.13,4.0,Calm,Calm,-,0.04,,Overcast,0,2012-12-09 23:55:00
7:15 PM,50.4,50.2,99,30.13,4.0,Calm,Calm,-,N/A,,Drizzle,0,2012-12-10 00:15:00
7:35 PM,50.4,50.2,99,30.12,3.0,Calm,Calm,-,0.01,,Light Drizzle,0,2012-12-10 00:35:00
7:55 PM,50.4,50.2,99,30.11,3.0,Calm,Calm,-,0.01,,Overcast,0,2012-12-10 00:55:00
8:15 PM,50.4,50.4,100,30.10,2.5,Calm,Calm,-,N/A,,Overcast,0,2012-12-10 01:15:00
8:35 PM,50.2,50.2,100,30.10,1.5,Calm,Calm,-,N/A,,Overcast,0,2012-12-10 01:35:00
9:15 PM,50.4,50.4,100,30.08,0.5,Calm,Calm,-,N/A,Fog,Fog,0,2012-12-10 02:15:00
9:35 PM,50.2,50.2,100,30.08,0.5,Calm,Calm,-,N/A,Fog,Fog,0,2012-12-10 02:35:00
9:55 PM,50.2,50.2,100,30.06,0.2,Calm,Calm,-,N/A,Fog,Fog,0,2012-12-10 02:55:00
10:15 PM,50.4,50.4,100,30.06,0.2,Calm,Calm,-,N/A,Fog,Fog,0,2012-12-10 03:15:00
10:35 PM,50.2,50.2,100,30.06,0.2,Calm,Calm,-,N/A,Fog,Fog,0,2012-12-10 03:35:00
10:55 PM,50.0,50.0,100,30.05,0.2,Calm,Calm,-,N/A,Rain,Light Rain,0,2012-12-10 03:55:00
11:15 PM,50.0,50.0,100,30.05,0.2,Calm,Calm,-,N/A,Rain,Rain,0,2012-12-10 04:15:00
11:35 PM,50.0,50.0,100,30.04,0.2,Calm,Calm,-,0.01,Fog,Fog,0,2012-12-10 04:35:00
11:55 PM,50.0,50.0,100,30.02,0.2,Calm,Calm,-,0.01,Fog,Fog,0,2012-12-10 04:55:00